Location: Unspecified
(0.0000°N, 0.0000°E)
Time: 00:27:14
(UTC+00:00)

A-11 Canister half - Pass Details

Date: 15 February 2023
Orbit: 1526 x 1682 km, 47.3° (Epoch: 29 March)

Event Time Altitude Azimuth Distance (km) Brightness Sun altitude
Rises 08:59:30 0° 355° (N) 4,706 11.4 40.1°
Reaches altitude 10° 09:05:07 10° 21° (NNE) 3,757 11.2 41.5°
Maximum altitude 09:08:59 13° 46° (NE) 3,553 11.4 42.4°
Drops below altitude 10° 09:12:52 10° 70° (ENE) 3,812 11.8 43.3°
Sets 09:18:35 0° 96° (E) 4,840 12.4 44.7°
